Time,TemperatureF,DewpointF,PressureIn,WindDirection,WindDirectionDegrees,WindSpeedMPH,WindSpeedGustMPH,Humidity,HourlyPrecipIn,Conditions,Clouds,dailyrainin,SoftwareType,DateUTC
2013-12-28 02:11:00,50.0,8.0,29.67,SW,236,33.0,52.0,18,0.00,,,0.00,,2013-12-28 09:11:00,
2013-12-28 02:21:00,49.0,9.0,29.67,WSW,254,32.0,58.0,19,0.00,,,0.00,,2013-12-28 09:21:00,
2013-12-28 02:43:00,49.0,9.0,29.66,WSW,258,29.0,65.0,19,0.00,,,0.00,,2013-12-28 09:43:00,
2013-12-28 02:53:00,49.0,10.0,29.65,NW,309,28.0,54.0,20,0.00,,,0.00,,2013-12-28 09:53:00,
2013-12-28 03:12:00,49.0,9.0,29.62,SW,232,32.0,71.0,19,0.00,,,0.00,,2013-12-28 10:12:00,
2013-12-28 03:22:00,49.0,10.0,29.62,WSW,250,32.0,67.0,20,0.00,,,0.00,,2013-12-28 10:22:00,
2013-12-28 03:43:00,49.0,10.0,29.65,West,272,20.0,60.0,20,0.00,,,0.00,,2013-12-28 10:43:00,
2013-12-28 03:53:00,48.0,9.0,29.67,NE,39,16.0,42.0,20,0.00,,,0.00,,2013-12-28 10:53:00,
2013-12-28 04:11:00,47.0,10.0,29.69,SSE,154,14.0,25.0,22,0.00,,,0.00,,2013-12-28 11:11:00,
2013-12-28 04:22:00,46.0,11.0,29.69,South,183,15.0,30.0,24,0.00,,,0.00,,2013-12-28 11:22:00,
2013-12-28 04:43:00,46.0,10.0,29.71,WSW,239,12.0,25.0,23,0.00,,,0.00,,2013-12-28 11:43:00,
2013-12-28 04:52:00,47.0,14.0,29.72,West,271,7.0,19.0,26,0.00,,,0.00,,2013-12-28 11:52:00,
2013-12-28 05:11:00,47.0,15.0,29.74,SW,218,11.0,24.0,27,0.00,,,0.00,,2013-12-28 12:11:00,
2013-12-28 05:23:00,45.0,15.0,29.75,SW,219,13.0,24.0,30,0.00,,,0.00,,2013-12-28 12:23:00,
2013-12-28 05:42:00,44.0,15.0,29.76,WSW,239,10.0,25.0,31,0.00,,,0.00,,2013-12-28 12:42:00,
2013-12-28 05:52:00,44.0,16.0,29.76,SSW,209,11.0,25.0,32,0.00,,,0.00,,2013-12-28 12:52:00,
2013-12-28 06:21:00,44.0,16.0,29.77,SW,229,19.0,27.0,32,0.00,,,0.00,,2013-12-28 13:21:00,
2013-12-28 06:42:00,43.0,16.0,29.79,NNE,14,11.0,20.0,33,0.00,,,0.00,,2013-12-28 13:42:00,
2013-12-28 06:52:00,38.0,19.0,29.80,South,191,4.0,7.0,45,0.00,,,0.00,,2013-12-28 13:52:00,
2013-12-28 07:21:00,36.0,19.0,29.82,NE,53,0.0,3.0,49,0.00,,,0.00,,2013-12-28 14:21:00,
2013-12-28 07:42:00,35.0,19.0,29.84,NW,319,3.0,6.0,51,0.00,,,0.00,,2013-12-28 14:42:00,
2013-12-28 07:52:00,37.0,20.0,29.85,NE,43,6.0,14.0,50,0.00,,,0.00,,2013-12-28 14:52:00,
2013-12-28 09:13:00,27.0,21.0,29.93,SSW,205,5.0,14.0,78,0.00,,,0.00,,2013-12-28 16:13:00,
2013-12-28 09:23:00,27.0,20.0,29.94,SSE,159,9.0,19.0,76,0.00,,,0.00,,2013-12-28 16:23:00,
2013-12-28 09:43:00,26.0,20.0,29.96,SSE,156,1.0,14.0,77,0.00,,,0.00,,2013-12-28 16:43:00,
2013-12-28 09:53:00,25.0,19.0,29.98,South,177,8.0,12.0,79,0.00,,,0.00,,2013-12-28 16:53:00,
2013-12-28 10:22:00,24.0,20.0,30.01,South,180,7.0,10.0,83,0.00,,,0.00,,2013-12-28 17:22:00,
2013-12-28 10:52:00,22.0,19.0,30.03,NE,36,0.0,11.0,88,0.00,,,0.00,,2013-12-28 17:52:00,
2013-12-28 11:12:00,23.0,20.0,30.04,North,11,5.0,7.0,88,0.00,,,0.00,,2013-12-28 18:12:00,
2013-12-28 11:21:00,22.0,17.0,30.04,North,355,10.0,14.0,82,0.00,,,0.00,,2013-12-28 18:21:00,
2013-12-28 11:42:00,22.0,16.0,30.05,NNE,13,10.0,16.0,78,0.00,,,0.00,,2013-12-28 18:42:00,
2013-12-28 11:52:00,21.0,15.0,30.04,North,11,7.0,14.0,77,0.00,,,0.00,,2013-12-28 18:52:00,
2013-12-28 12:11:00,21.0,15.0,30.04,NE,43,4.0,7.0,77,0.00,,,0.00,,2013-12-28 19:11:00,
2013-12-28 12:21:00,22.0,16.0,30.04,SW,227,4.0,6.0,77,0.00,,,0.00,,2013-12-28 19:21:00,
2013-12-28 12:42:00,22.0,16.0,30.04,SSW,202,13.0,16.0,79,0.00,,,0.00,,2013-12-28 19:42:00,
2013-12-28 12:52:00,21.0,16.0,30.05,South,177,9.0,16.0,80,0.00,,,0.00,,2013-12-28 19:52:00,
2013-12-28 13:11:00,20.0,14.0,30.05,South,174,12.0,18.0,78,0.00,,,0.00,,2013-12-28 20:11:00,
2013-12-28 13:22:00,21.0,14.0,30.05,SSW,202,8.0,13.0,73,0.00,,,0.00,,2013-12-28 20:22:00,
2013-12-28 13:42:00,20.0,13.0,30.06,SSE,150,5.0,13.0,73,0.00,,,0.00,,2013-12-28 20:42:00,
2013-12-28 13:52:00,18.0,12.0,30.09,SSW,193,8.0,11.0,78,0.00,,,0.00,,2013-12-28 20:52:00,
2013-12-28 14:21:00,18.0,13.0,30.10,SSE,162,8.0,15.0,79,0.00,,,0.00,,2013-12-28 21:21:00,
2013-12-28 14:43:00,17.0,12.0,30.11,SSW,198,10.0,16.0,79,0.00,,,0.00,,2013-12-28 21:43:00,
2013-12-28 14:52:00,17.0,12.0,30.11,South,188,7.0,12.0,79,0.00,,,0.00,,2013-12-28 21:52:00,
2013-12-28 15:12:00,17.0,11.0,30.12,South,180,8.0,12.0,78,0.00,,,0.00,,2013-12-28 22:12:00,
2013-12-28 15:23:00,16.0,10.0,30.13,South,182,8.0,12.0,77,0.00,,,0.00,,2013-12-28 22:23:00,
2013-12-28 15:52:00,16.0,11.0,30.14,South,190,6.0,12.0,80,0.00,,,0.00,,2013-12-28 22:52:00,
2013-12-28 16:11:00,16.0,10.0,30.15,SE,134,6.0,9.0,78,0.00,,,0.00,,2013-12-28 23:11:00,
2013-12-28 16:22:00,15.0,10.0,30.16,South,183,5.0,9.0,79,0.00,,,0.00,,2013-12-28 23:22:00,
2013-12-28 16:42:00,15.0,10.0,30.16,South,175,5.0,10.0,79,0.00,,,0.00,,2013-12-28 23:42:00,
2013-12-28 16:53:00,14.0,9.0,30.17,South,177,5.0,7.0,79,0.00,,,0.00,,2013-12-28 23:53:00,
2013-12-28 17:22:00,14.0,9.0,30.17,SSE,164,5.0,7.0,80,0.00,,,0.00,,2013-12-29 00:22:00,
2013-12-28 17:42:00,13.0,9.0,30.18,SSE,160,1.0,4.0,82,0.00,,,0.00,,2013-12-29 00:42:00,
2013-12-28 17:52:00,13.0,8.0,30.19,SSE,148,2.0,4.0,81,0.00,,,0.00,,2013-12-29 00:52:00,
2013-12-28 18:11:00,14.0,9.0,30.20,ESE,111,2.0,4.0,81,0.00,,,0.00,,2013-12-29 01:11:00,
2013-12-28 18:21:00,14.0,9.0,30.20,ESE,117,3.0,5.0,81,0.00,,,0.00,,2013-12-29 01:21:00,
2013-12-28 18:42:00,14.0,9.0,30.21,SE,143,4.0,8.0,81,0.00,,,0.00,,2013-12-29 01:42:00,
2013-12-28 18:52:00,14.0,10.0,30.22,SE,132,3.0,5.0,82,0.00,,,0.00,,2013-12-29 01:52:00,
2013-12-28 19:22:00,13.0,9.0,30.24,SE,134,2.0,4.0,82,0.00,,,0.00,,2013-12-29 02:22:00,
2013-12-28 19:42:00,14.0,10.0,30.25,SSE,159,5.0,7.0,82,0.00,,,0.00,,2013-12-29 02:42:00,
2013-12-28 19:52:00,14.0,9.0,30.26,SSW,193,4.0,7.0,81,0.00,,,0.00,,2013-12-29 02:52:00,
2013-12-28 20:21:00,14.0,10.0,30.27,SSW,194,4.0,7.0,82,0.00,,,0.00,,2013-12-29 03:21:00,
2013-12-28 20:43:00,14.0,9.0,30.27,South,180,5.0,8.0,81,0.00,,,0.00,,2013-12-29 03:43:00,
2013-12-28 20:53:00,14.0,10.0,30.27,South,178,4.0,6.0,82,0.00,,,0.00,,2013-12-29 03:53:00,
2013-12-28 21:02:00,-999.0,-99.9,30.28,South,185,5.0,8.0,-999,0.00,,,0.00,,2013-12-29 04:02:00,
2013-12-28 21:22:00,14.0,10.0,30.28,South,185,2.0,3.0,82,0.00,,,0.00,,2013-12-29 04:22:00,
2013-12-28 21:42:00,14.0,9.0,30.29,WNW,299,4.0,7.0,81,0.00,,,0.00,,2013-12-29 04:42:00,
2013-12-28 21:53:00,14.0,9.0,30.29,WNW,299,4.0,7.0,81,0.00,,,0.00,,2013-12-29 04:53:00,
2013-12-28 22:12:00,14.0,10.0,30.29,WNW,294,1.0,3.0,82,0.00,,,0.00,,2013-12-29 05:12:00,
2013-12-28 22:23:00,14.0,10.0,30.28,West,269,1.0,5.0,82,0.00,,,0.00,,2013-12-29 05:23:00,
2013-12-28 22:43:00,12.0,8.0,30.29,SW,219,0.0,3.0,82,0.00,,,0.00,,2013-12-29 05:43:00,
2013-12-28 22:53:00,12.0,8.0,30.29,SW,219,0.0,0.0,83,0.00,,,0.00,,2013-12-29 05:53:00,
2013-12-28 23:12:00,13.0,9.0,30.30,SW,219,1.0,3.0,82,0.00,,,0.00,,2013-12-29 06:12:00,
2013-12-28 23:22:00,13.0,9.0,30.30,SW,219,2.0,4.0,82,0.00,,,0.00,,2013-12-29 06:22:00,
2013-12-28 23:42:00,14.0,9.0,30.30,West,277,6.0,9.0,80,0.00,,,0.00,,2013-12-29 06:42:00,
2013-12-28 23:52:00,14.0,9.0,30.31,West,275,6.0,8.0,79,0.00,,,0.00,,2013-12-29 06:52:00,